Location: Buffign�court
(47.8126°N, 6.0176°E)
Time: 17:30:51
(UTC+00:00)

Lacrosse 5 rocket - Pass Details

Date: 16 June 2021
Orbit: 460 x 634 km, 57.0° (Epoch: 30 July)

Event Time Altitude Azimuth Distance (km) Brightness Sun altitude
Rises 20:48:20 0° 196° (SSW) 2,542 4.4 -9.4°
Reaches altitude 10° 20:50:51 10° 180° (S) 1,642 3.3 -9.7°
Maximum altitude 20:53:41 21° 129° (SE) 1,090 2.2 -10.0°
Drops below altitude 10° 20:56:29 10° 78° (ENE) 1,616 3.5 -10.2°
Sets 20:58:56 0° 62° (ENE) 2,488 4.6 -10.5°
